FREGAT R/B (45255 NORAD) Tracking and Keplerian Element Data

This shows tracking and keplerian element data for the satellite.

Feedback or suggestion? Click here.




ElementValue
Catalog45255
NameFREGAT R/B
Epoch Orbit40
Epoch Day69.41774665
Epoch Year2020
RAAN223.4825
Inclination62.8498
Eccentricity0.7270955
Argument of Perigee294.6107
Mean Anonmoly8.5198
Mean Motion1.99766163
Decay Rate-7.43E-06
L11 45255U 20015B 20069.41774665 -.00000743 00000-0 -24407-2 0 9991
L22 45255 62.8498 223.4825 7270955 294.6107 8.5198 1.99766163 403



Live tracking and technical data element details for FREGAT R/B (NORAD 45255). FREGAT R/B can be tracked NOW for your location showing map with azimuth and elevation plus other details from your city location.







IsCatalogInMostPopularTable: catalog: 45255, numindb: 180
Update: records affected: 1



GetName: 45255 FREGAT R/B

Hit Count: updated at: Sun, 11 Jun 2023 00:34:22 GMT